When you browse on this site, cookies collect data to enhance your experience and personalize the content and advertising you see.
Visit our Privacy Policy to learn more. By continuing to use the site, you agree to this use of cookies and data.
  • In United Kingdom
  • List of Countries
  • For 7 days
  • Water Temperature
  • Weather Map
  • Weather Widgets
  • user-avatar
    Login

    Hourly Weather Andiyur

    Today, 3 April, Friday

    Time Temperature Precipitation Wind Pressure Humidity
    00:00 +28°C° 0 mm 2 mps 735 mmHg 56%
    01:00 +27°C° 0 mm 1 mps 734 mmHg 62%
    02:00 +26°C° 0 mm 1 mps 733 mmHg 68%
    03:00 +25°C° 0 mm 1 mps 734 mmHg 73%
    04:00 +25°C° 0 mm 1 mps 734 mmHg 78%
    05:00 +24°C° 0 mm 1 mps 734 mmHg 83%
    06:00 +26°C° 0 mm 1 mps 735 mmHg 76%
    07:00 +27°C° 0 mm 2 mps 735 mmHg 70%
    08:00 +29°C° 0 mm 2 mps 736 mmHg 63%
    09:00 +31°C° 0 mm 2 mps 736 mmHg 52%
    10:00 +35°C° 0 mm 2 mps 736 mmHg 41%
    11:00 +37°C° 0 mm 2 mps 736 mmHg 30%
    12:00 +38°C° 0 mm 2 mps 735 mmHg 26%
    13:00 +39°C° 0 mm 3 mps 734 mmHg 23%
    14:00 +42°C° 0 mm 3 mps 733 mmHg 19%
    15:00 +42°C° 0 mm 3 mps 733 mmHg 18%
    16:00 +40°C° 0 mm 3 mps 733 mmHg 18%
    17:00 +40°C° 0 mm 3 mps 733 mmHg 18%
    18:00 +38°C° 0 mm 3 mps 734 mmHg 21%
    19:00 +36°C° 0 mm 3 mps 734 mmHg 25%
    20:00 +34°C° 0 mm 2 mps 735 mmHg 29%
    21:00 +31°C° 0 mm 2 mps 735 mmHg 35%
    22:00 +30°C° 0 mm 2 mps 736 mmHg 42%
    23:00 +28°C° 0 mm 2 mps 736 mmHg 49%

    Tomorrow, 4 April, Saturday

    Time Temperature Precipitation Wind Pressure Humidity
    00:00 +27°C° 0 mm 2 mps 735 mmHg 57%
    01:00 +26°C° 0 mm 2 mps 735 mmHg 65%
    02:00 +25°C° 0 mm 2 mps 735 mmHg 73%
    03:00 +25°C° 0 mm 1 mps 735 mmHg 77%
    04:00 +24°C° 0 mm 1 mps 735 mmHg 81%
    05:00 +23°C° 0 mm 1 mps 735 mmHg 85%
    06:00 +25°C° 0 mm 1 mps 735 mmHg 77%
    07:00 +27°C° 0 mm 1 mps 736 mmHg 69%
    08:00 +28°C° 0 mm 2 mps 737 mmHg 62%
    09:00 +31°C° 0 mm 2 mps 736 mmHg 51%
    10:00 +34°C° 0 mm 2 mps 736 mmHg 40%
    11:00 +37°C° 0 mm 2 mps 736 mmHg 29%
    12:00 +38°C° 0 mm 2 mps 735 mmHg 25%
    13:00 +39°C° 0 mm 2 mps 734 mmHg 22%
    14:00 +41°C° 0 mm 2 mps 733 mmHg 18%
    15:00 +40°C° 0 mm 2 mps 733 mmHg 17%
    16:00 +40°C° 0 mm 2 mps 733 mmHg 17%
    17:00 +40°C° 0 mm 2 mps 733 mmHg 16%
    18:00 +38°C° 0 mm 2 mps 734 mmHg 19%
    19:00 +34°C° 0 mm 1 mps 735 mmHg 22%
    20:00 +32°C° 0 mm 1 mps 735 mmHg 26%
    21:00 +31°C° 0 mm 1 mps 735 mmHg 32%
    22:00 +29°C° 0 mm 1 mps 736 mmHg 38%
    23:00 +28°C° 0 mm 1 mps 736 mmHg 44%

    Day after tomorrow, 5 April, Sunday

    Time Temperature Precipitation Wind Pressure Humidity
    00:00 +28°C° 0 mm 1 mps 735 mmHg 52%
    01:00 +27°C° 0 mm 1 mps 735 mmHg 60%
    02:00 +26°C° 0 mm 1 mps 734 mmHg 68%
    03:00 +25°C° 0 mm 1 mps 735 mmHg 72%
    04:00 +25°C° 0 mm 1 mps 735 mmHg 76%
    05:00 +24°C° 0 mm 1 mps 735 mmHg 80%
    06:00 +26°C° 0 mm 1 mps 736 mmHg 74%
    07:00 +28°C° 0 mm 1 mps 736 mmHg 67%
    08:00 +29°C° 0 mm 1 mps 737 mmHg 60%
    09:00 +32°C° 0 mm 2 mps 737 mmHg 51%
    10:00 +35°C° 0 mm 2 mps 737 mmHg 42%
    11:00 +37°C° 0 mm 2 mps 736 mmHg 33%
    12:00 +38°C° 0 mm 2 mps 735 mmHg 29%
    13:00 +39°C° 0 mm 2 mps 734 mmHg 25%
    14:00 +42°C° 0 mm 3 mps 733 mmHg 21%
    15:00 +40°C° 0 mm 3 mps 733 mmHg 22%
    16:00 +40°C° 0 mm 3 mps 733 mmHg 23%
    17:00 +39°C° 0 mm 3 mps 733 mmHg 24%
    18:00 +38°C° 0 mm 2 mps 734 mmHg 27%
    19:00 +36°C° 0 mm 2 mps 735 mmHg 31%
    20:00 +33°C° 0 mm 1 mps 735 mmHg 35%
    21:00 +32°C° 0 mm 2 mps 736 mmHg 43%
    22:00 +31°C° 0 mm 2 mps 736 mmHg 51%
    23:00 +30°C° 0 mm 2 mps 736 mmHg 60%

    6 April, Monday

    Time Temperature Precipitation Wind Pressure Humidity
    00:00 +29°C° 0 mm 2 mps 736 mmHg 64%
    01:00 +28°C° 0 mm 1 mps 736 mmHg 69%
    02:00 +28°C° 0 mm 1 mps 735 mmHg 73%
    03:00 +27°C° 0 mm 1 mps 735 mmHg 75%
    04:00 +27°C° 0 mm 1 mps 735 mmHg 77%
    05:00 +24°C° 0 mm 0 mps 735 mmHg 80%
    06:00 +28°C° 0 mm 1 mps 736 mmHg 73%
    07:00 +30°C° 0 mm 1 mps 736 mmHg 66%
    08:00 +32°C° 0 mm 1 mps 737 mmHg 59%
    09:00 +34°C° 0 mm 1 mps 737 mmHg 51%
    10:00 +37°C° 0 mm 2 mps 736 mmHg 42%
    11:00 +39°C° 0 mm 2 mps 736 mmHg 34%
    12:00 +40°C° 0 mm 2 mps 735 mmHg 29%
    13:00 +41°C° 0 mm 2 mps 734 mmHg 25%
    14:00 +42°C° 0 mm 2 mps 733 mmHg 20%
    15:00 +42°C° 0 mm 2 mps 733 mmHg 20%
    16:00 +41°C° 0 mm 2 mps 732 mmHg 20%
    17:00 +41°C° 0 mm 1 mps 732 mmHg 20%
    18:00 +39°C° 0 mm 2 mps 733 mmHg 23%
    19:00 +37°C° 0 mm 2 mps 734 mmHg 27%
    20:00 +35°C° 0 mm 2 mps 735 mmHg 31%
    21:00 +34°C° 0 mm 2 mps 735 mmHg 39%
    22:00 +32°C° 0 mm 1 mps 735 mmHg 48%
    23:00 +30°C° 0 mm 1 mps 735 mmHg 57%

    7 April, Tuesday

    Time Temperature Precipitation Wind Pressure Humidity
    00:00 +30°C° 0 mm 1 mps 735 mmHg 61%
    01:00 +29°C° 0 mm 1 mps 734 mmHg 65%
    02:00 +28°C° 0 mm 1 mps 734 mmHg 70%
    03:00 +28°C° 0 mm 1 mps 734 mmHg 72%
    04:00 +27°C° 0 mm 1 mps 734 mmHg 75%
    05:00 +25°C° 0 mm 0 mps 734 mmHg 77%
    06:00 +27°C° 0 mm 0 mps 735 mmHg 70%
    07:00 +28°C° 0 mm 0 mps 735 mmHg 63%
    08:00 +30°C° 0 mm 0 mps 736 mmHg 56%
    09:00 +35°C° 0 mm 1 mps 736 mmHg 48%
    10:00 +37°C° 0 mm 1 mps 735 mmHg 40%
    11:00 +40°C° 0 mm 2 mps 735 mmHg 32%
    12:00 +41°C° 0 mm 2 mps 734 mmHg 29%
    13:00 +41°C° 0 mm 2 mps 733 mmHg 26%
    14:00 +42°C° 0 mm 2 mps 732 mmHg 22%
    15:00 +42°C° 0 mm 3 mps 732 mmHg 24%
    16:00 +41°C° 0 mm 4 mps 732 mmHg 27%
    17:00 +40°C° 0 mm 4 mps 732 mmHg 29%
    18:00 +37°C° 0 mm 3 mps 733 mmHg 32%
    19:00 +36°C° 0 mm 2 mps 734 mmHg 36%
    20:00 +34°C° 0 mm 1 mps 735 mmHg 39%
    21:00 +33°C° 0.1 mm 1 mps 735 mmHg 44%
    22:00 +32°C° 0.1 mm 2 mps 735 mmHg 48%
    23:00 +31°C° 0.1 mm 2 mps 735 mmHg 53%

    8 April, Wednesday

    Time Temperature Precipitation Wind Pressure Humidity
    00:00 +31°C° 0 mm 1 mps 734 mmHg 56%
    01:00 +30°C° 0 mm 1 mps 734 mmHg 60%
    02:00 +27°C° 0 mm 0 mps 733 mmHg 63%
    03:00 +27°C° 0 mm 0 mps 733 mmHg 64%
    04:00 +27°C° 0 mm 0 mps 733 mmHg 66%
    05:00 +29°C° 0 mm 1 mps 734 mmHg 67%
    06:00 +30°C° 0 mm 1 mps 734 mmHg 62%
    07:00 +31°C° 0 mm 1 mps 735 mmHg 57%
    08:00 +34°C° 0 mm 2 mps 736 mmHg 52%
    09:00 +36°C° 0 mm 2 mps 735 mmHg 44%
    10:00 +38°C° 0 mm 2 mps 735 mmHg 37%
    11:00 +41°C° 0 mm 2 mps 735 mmHg 29%
    12:00 +41°C° 0.1 mm 2 mps 734 mmHg 29%
    13:00 +40°C° 0.1 mm 2 mps 733 mmHg 28%
    14:00 +40°C° 0.1 mm 2 mps 732 mmHg 28%
    15:00 +38°C° 0.2 mm 2 mps 732 mmHg 33%
    16:00 +36°C° 0.2 mm 2 mps 732 mmHg 38%
    17:00 +34°C° 0.2 mm 2 mps 732 mmHg 43%
    18:00 +32°C° 0.1 mm 2 mps 733 mmHg 47%
    19:00 +31°C° 0.1 mm 3 mps 733 mmHg 51%
    20:00 +30°C° 0.1 mm 3 mps 734 mmHg 55%
    21:00 +29°C° 0 mm 2 mps 734 mmHg 57%
    22:00 +29°C° 0 mm 2 mps 734 mmHg 59%
    23:00 +28°C° 0 mm 1 mps 734 mmHg 61%
    Show more